Date String (YYYY-MM-DD hh:mm:ss) UTC,Instrument flags,absolute air pressure of the measurement (hPa),sample flow rate (lpm),inlet stack bypass flow (lpm),air temperature of the measurement (°C),ambient temperature measured by the external sensor (°C),aerosol sample conditioner tube jacket temperature (°C),OPC LED temperature (°C),internal box temperature (°C),relative humidity of the measurement (%),span deviation,mass concentration of particles derived from Lorenz-Mie calculation of OPC scattering (μg/m³),mass concentration of particles derived from Lorenz-Mie calculation of OPC scattering (μg/m³),mass concentration of particles derived from Lorenz-Mie calculation of OPC scattering (μg/m³)
DateTimeUTC,F1_M11,P_M11,Q1_M11,Q2_M11,T1_M11,T2_M11,T3_M11,T4_M11,T5_M11,U1_M11,ZSPAN_M11,X0_M11,X2_M11,X1_M11
2024-04-04 19:00:00,SystemResetWarning,0825.4,5.01,000.00,025.7,025.1,000.0,034.1,027.5,011.9,0000.0,0012.12,0002.71,0001.84
2024-04-04 19:01:00,SystemResetWarning,0825.5,5.00,000.00,025.7,025.2,000.0,034.1,027.5,011.3,0000.0,0012.38,0002.76,0001.86
2024-04-04 19:02:00,SystemResetWarning,0825.5,5.00,000.00,025.8,025.2,000.0,034.1,027.5,010.8,0000.0,0012.09,0002.77,0001.85
2024-04-04 19:03:00,SystemResetWarning,0825.4,5.01,000.00,025.8,025.2,000.0,034.1,027.6,010.9,0000.0,0012.85,0002.79,0001.87
2024-04-04 19:04:00,SystemResetWarning,0825.4,4.99,000.00,025.8,025.2,000.0,034.1,027.6,011.5,0000.0,0012.79,0002.84,0001.89
2024-04-04 19:05:00,SystemResetWarning,0825.4,4.99,000.00,025.8,025.2,000.0,034.1,027.6,010.9,0000.0,0012.01,0002.86,0001.90
2024-04-04 19:06:00,SystemResetWarning,0825.4,5.00,000.00,025.8,025.2,000.0,034.1,027.6,011.1,0000.0,0011.95,0002.88,0001.92
2024-04-04 19:07:00,SystemResetWarning,0825.4,5.01,000.00,025.8,025.2,000.0,034.2,027.6,010.5,0000.0,0011.74,0002.92,0001.92
2024-04-04 19:08:00,SystemResetWarning,0825.3,5.00,000.00,025.8,025.2,000.0,034.2,027.6,010.5,0000.0,0010.57,0002.94,0001.94
2024-04-04 19:09:00,SystemResetWarning,0825.4,5.00,000.00,025.8,025.2,000.0,034.2,027.6,010.5,0000.0,0009.80,0002.91,0001.94
2024-04-04 19:10:00,SystemResetWarning,0825.3,5.00,000.00,025.9,025.3,000.0,034.2,027.7,010.6,0000.0,0009.39,0002.95,0001.96
2024-04-04 19:11:00,SystemResetWarning,0825.3,5.01,000.00,025.9,025.3,000.0,034.2,027.7,010.6,0000.0,0009.06,0002.88,0001.95
2024-04-04 19:12:00,SystemResetWarning,0825.3,5.01,000.00,025.9,025.3,000.0,034.2,027.7,010.4,0000.0,0008.78,0002.89,0001.95
2024-04-04 19:13:00,SystemResetWarning,0825.2,5.00,000.00,025.9,025.3,000.0,034.2,027.7,010.6,0000.0,0008.43,0002.88,0001.94
2024-04-04 19:14:00,SystemResetWarning,0825.2,5.00,000.00,025.9,025.3,000.0,034.2,027.7,010.5,0000.0,0007.72,0002.84,0001.93
2024-04-04 19:15:00,SystemResetWarning,0825.2,5.00,000.00,025.9,025.4,000.0,034.3,027.7,010.9,0000.0,0007.08,0002.80,0001.91
2024-04-04 19:16:00,SystemResetWarning,0825.3,5.00,000.00,026.0,025.4,000.0,034.3,027.7,011.1,0000.0,0006.94,0002.76,0001.91
2024-04-04 19:17:00,SystemResetWarning,0825.2,5.00,000.00,026.0,025.4,000.0,034.3,027.8,011.1,0000.0,0006.75,0002.76,0001.89
2024-04-04 19:18:00,SystemResetWarning,0825.3,4.99,000.00,026.0,025.4,000.0,034.3,027.8,010.3,0000.0,0007.64,0002.77,0001.89
2024-04-04 19:19:00,SystemResetWarning,0825.3,5.00,000.00,026.0,025.4,000.0,034.3,027.8,010.0,0000.0,0007.94,0002.71,0001.89
2024-04-04 19:20:00,SystemResetWarning,0825.2,4.99,000.00,026.0,025.4,000.0,034.3,027.8,010.1,0000.0,0007.92,0002.69,0001.88
2024-04-04 19:21:00,SystemResetWarning,0825.2,5.00,000.00,026.0,025.4,000.0,034.3,027.8,009.9,0000.0,0008.00,0002.65,0001.87
2024-04-04 19:22:00,SystemResetWarning,0825.2,5.01,000.00,026.0,025.4,000.0,034.4,027.8,010.1,0000.0,0008.39,0002.65,0001.86
2024-04-04 19:23:00,SystemResetWarning,0825.1,5.01,000.00,026.0,025.4,000.0,034.4,027.9,009.7,0000.0,0009.03,0002.63,0001.87
2024-04-04 19:24:00,SystemResetWarning,0825.1,4.99,000.00,026.1,025.5,000.0,034.4,027.9,009.7,0000.0,0009.48,0002.55,0001.86
2024-04-04 19:25:00,SystemResetWarning,0825.1,5.00,000.00,026.1,025.5,000.0,034.4,027.9,009.6,0000.0,0009.75,0002.53,0001.85
2024-04-04 19:26:00,SystemResetWarning,0825.1,5.02,000.00,026.1,025.5,000.0,034.4,027.9,009.9,0000.0,0009.09,0002.52,0001.86
2024-04-04 19:27:00,SystemResetWarning,0825.1,4.98,000.00,026.1,025.5,000.0,034.4,027.9,010.2,0000.0,0008.89,0002.46,0001.86
2024-04-04 19:28:00,SystemResetWarning,0825.1,5.00,000.00,026.1,025.5,000.0,034.5,027.9,010.2,0000.0,0008.86,0002.43,0001.86
2024-04-04 19:29:00,SystemResetWarning,0825.0,5.00,000.00,026.1,025.6,000.0,034.5,027.9,010.5,0000.0,0008.37,0002.39,0001.85
2024-04-04 19:30:00,SystemResetWarning,0825.0,5.01,000.00,026.2,025.6,000.0,034.5,028.0,010.5,0000.0,0007.91,0002.34,0001.82
2024-04-04 19:31:00,SystemResetWarning,0825.0,5.00,000.00,026.2,025.6,000.0,034.5,028.0,010.2,0000.0,0007.94,0002.33,0001.82
2024-04-04 19:32:00,SystemResetWarning,0825.0,5.00,000.00,026.2,025.6,000.0,034.5,028.0,010.0,0000.0,0007.78,0002.36,0001.81
2024-04-04 19:33:00,SystemResetWarning,0825.0,5.00,000.00,026.2,025.6,000.0,034.5,028.0,009.9,0000.0,0007.70,0002.31,0001.80
2024-04-04 19:34:00,SystemResetWarning,0825.0,5.00,000.00,026.2,025.7,000.0,034.5,028.0,009.9,0000.0,0006.91,0002.32,0001.78
2024-04-04 19:35:00,SystemResetWarning,0825.0,5.00,000.00,026.2,025.7,000.0,034.6,028.1,009.4,0000.0,0006.14,0002.36,0001.78
2024-04-04 19:36:00,SystemResetWarning,0825.0,5.00,000.00,026.3,025.7,000.0,034.6,028.1,009.1,0000.0,0007.30,0002.37,0001.78
2024-04-04 19:37:00,SystemResetWarning,0824.9,5.00,000.00,026.3,025.7,000.0,034.6,028.1,009.1,0000.0,0007.39,0002.37,0001.77
2024-04-04 19:38:00,SystemResetWarning,0824.9,5.00,000.00,026.3,025.7,000.0,034.6,028.1,009.1,0000.0,0007.40,0002.38,0001.76
2024-04-04 19:39:00,SystemResetWarning,0824.9,5.00,000.00,026.3,025.7,000.0,034.6,028.1,009.0,0000.0,0007.63,0002.37,0001.77
2024-04-04 19:40:00,SystemResetWarning,0824.9,5.00,000.00,026.3,025.7,000.0,034.6,028.1,009.0,0000.0,0007.55,0002.34,0001.77
2024-04-04 19:41:00,SystemResetWarning,0824.9,5.00,000.00,026.3,025.7,000.0,034.7,028.1,009.1,0000.0,0007.56,0002.39,0001.78
2024-04-04 19:42:00,SystemResetWarning,0824.9,5.00,000.00,026.3,025.7,000.0,034.7,028.1,009.4,0000.0,0007.52,0002.41,0001.78
2024-04-04 19:43:00,SystemResetWarning,0824.9,5.00,000.00,026.4,025.8,000.0,034.7,028.1,009.9,0000.0,0007.49,0002.40,0001.79
2024-04-04 19:44:00,SystemResetWarning,0824.9,5.00,000.00,026.4,025.8,000.0,034.7,028.1,010.2,0000.0,0007.02,0002.42,0001.79
2024-04-04 19:45:00,SystemResetWarning,0824.9,4.98,000.00,026.3,024.7,000.0,034.8,027.6,010.4,0000.0,0006.72,0002.41,0001.79
2024-04-04 19:46:00,SystemResetWarning,0824.8,5.01,000.00,025.9,023.0,000.0,034.8,026.7,010.7,0000.0,0007.66,0002.43,0001.80
2024-04-04 19:47:00,SystemResetWarning,0824.8,5.02,000.00,025.7,022.9,000.0,034.7,026.5,011.3,0000.0,0006.85,0002.48,0001.82
2024-04-04 19:48:00,SystemResetWarning,0824.8,5.00,000.00,025.6,023.2,000.0,034.5,026.7,010.3,0000.0,0006.53,0002.58,0001.84
2024-04-04 19:49:00,SystemResetWarning,0824.8,5.00,000.00,025.5,023.5,000.0,034.4,026.9,010.0,0000.0,0007.03,0002.66,0001.86
2024-04-04 19:50:00,SystemResetWarning,0824.8,5.00,000.00,025.5,023.8,000.0,034.3,027.0,010.2,0000.0,0006.83,0002.69,0001.86
2024-04-04 19:51:00,SystemResetWarning,0824.7,5.01,000.00,025.6,024.1,000.0,034.3,027.1,010.6,0000.0,0008.55,0002.75,0001.88
2024-04-04 19:52:00,SystemResetWarning,0824.7,5.00,000.00,025.6,024.3,000.0,034.2,027.2,010.2,0000.0,0008.83,0002.75,0001.89
2024-04-04 19:53:00,SystemResetWarning,0824.7,5.00,000.00,025.6,024.5,000.0,034.2,027.3,010.3,0000.0,0008.78,0002.76,0001.90
2024-04-04 19:54:00,SystemResetWarning,0824.7,5.00,000.00,025.6,024.7,000.0,034.2,027.4,009.8,0000.0,0008.92,0002.77,0001.91
2024-04-04 19:55:00,SystemResetWarning,0824.8,5.00,000.00,025.7,024.8,000.0,034.2,027.4,009.6,0000.0,0009.18,0002.77,0001.94
2024-04-04 19:56:00,SystemResetWarning,0824.7,5.00,000.00,025.7,024.9,000.0,034.2,027.5,010.2,0000.0,0009.20,0002.86,0001.96
2024-04-04 19:57:00,SystemResetWarning,0824.8,5.00,000.00,025.7,025.0,000.0,034.2,027.5,010.4,0000.0,0008.86,0002.86,0001.97
2024-04-04 19:58:00,SystemResetWarning,0824.7,5.00,000.00,025.8,025.1,000.0,034.2,027.6,010.5,0000.0,0009.43,0002.82,0001.98
2024-04-04 19:59:00,SystemResetWarning,0824.7,5.00,000.00,025.8,025.2,000.0,034.2,027.6,010.0,0000.0,0009.67,0002.78,0001.98
